Hourly Data Report for October 27, 2016

All times are specified in Local Standard Time (LST). Add 1 hour to adjust for Daylight Saving Time where and when it is observed.

IQALUIT CLIMATE
NUNAVUT

63°44'50.000" N
68°32'40.000" W
33.50 m
2402592
71321
XFB

Download Data

Hourly Data (October 2016)
Hourly Data Report for October 27, 2016
Temp Definition
°C
Dew Point Temp Definition
°C
Rel Hum Definition
%
Wind Dir Definition
10's deg

Wind Spd Definition
km/h
Visibility Definition
km
Stn Press Definition
kPa
Hmdx Definition


Wind Chill Definition


Weather Definition


TIME
00:00 -4.9 -5.9 93 5 4   101.46   -7 LegendNANA
01:00 -5.2 -6.2 93 35 4   101.48   -7 LegendNANA
02:00 -5.2 -6.0 94 8 2   101.50   -6 LegendNANA
03:00 -4.0 -5.0 93 13 7   101.47   -7 LegendNANA
04:00 -4.0 -5.2 91 13 6   101.40   -7 LegendNANA
05:00 -2.8 -4.7 87 13 13   101.33   -7 LegendNANA
06:00 -2.8 -4.7 87 12 15   101.30   -8 LegendNANA
07:00 -2.3 -4.5 85 13 18   101.27   -8 LegendNANA
08:00 -1.4 -3.5 86 15 7   101.23   -4 LegendNANA
09:00 -1.2 -4.2 80 23 10   101.22   -5 LegendNANA
10:00 -0.8 -5.1 73 23 10   101.19   -4 LegendNANA
11:00 -0.3 -3.8 77 22 14   101.17   -5 LegendNANA
12:00 0.0 -3.6 77 24 24   101.16   -6 LegendNANA
13:00 0.1 -3.3 78 25 21   101.16     LegendNANA
14:00 -1.8 -2.9 92 34 9   101.17   -5 LegendNANA
15:00 -1.9 -3.1 91 1 5   101.16   -4 LegendNANA
16:00 -0.5 -4.0 77 27 12   101.15   -4 LegendNANA
17:00 -0.5 -4.1 76 23 19   101.13   -6 LegendNANA
18:00 -0.5 -4.1 77 23 23   101.11   -6 LegendNANA
19:00 -0.1 -4.3 73 24 34   101.08   -7 LegendNANA
20:00 -0.5 -3.8 78 24 28   101.08   -7 LegendNANA
21:00 -1.1 -3.5 84 25 17   101.10   -6 LegendNANA
22:00 -1.5 -3.8 84 24 10   101.08   -5 LegendNANA
23:00 -2.7 -5.3 82 33 6   101.08   -5 LegendNANA

Notes on Data Quality.

Legend

  • E = Estimated
  • M = Missing
  • NA = Not Available
  • ‡ = Partner data that is not subject to review by the National Climate Archives
Date modified: